Miscellaneous Local Product
Issued by NWS North Platte, NE

Home | Current Version | Previous Version | Text Only | Print | Product List | Glossary On
Versions: 1 2 3 4 5 6 7 8 9 10 11 12 13 14 15 16 17 18 19 20 21 22 23 24 25 26 27 28 29 30 31 32 33 34 35 36 37 38 39 40 41 42 43 44 45 46 47 48 49 50
221
AXUS43 KLBF 270710
MISLBF


WESTERN AND NORTH CENTRAL NEBRASKA HOURLY WEATHER ROUNDUP
NATIONAL WEATHER SERVICE NORTH PLATTE NE
200 AM CDT TUE SEP 27 2016

NOTE: "FAIR" INDICATES FEW OR NO CLOUDS BELOW 12,000 FEET WITH NO
SIGNIFICANT WEATHER AND/OR OBSTRUCTIONS TO VISIBILITY.

NOTE: STATIONS NOT REPORTING VARIABLES SUCH AS SKY/WEATHER OR
PRESSURE ARE PROVIDED BY RAWS AND APRS NETWORKS AND ARE NOT UNDER
NATIONAL WEATHER SERVICE QUALITY CONTROL.

...OBSERVATIONS IN AND NEAR THE EASTERN PANHANDLE OF NEBRASKA...

CITY           SKY/WX    TMP DP  RH WIND       PRES   REMARKS
PINE RIDGE     CLOUDY    38  36  92 CALM      30.18F
CHADRON        CLEAR     45  41  86 SW5       30.19F
ALLIANCE       CLOUDY    38  36  92 W7        30.21F WCI  33
SIDNEY         CLEAR     46  40  79 NW7       30.26F
CRESCENT LAKE    N/A     47  42  83 CALM        N/A
$$

...OBSERVATIONS IN NORTHERN NEBRASKA AND FAR SOUTHERN SOUTH DAKOTA...

CITY           SKY/WX    TMP DP  RH WIND       PRES   REMARKS
WINNER         FAIR      48  40  73 SW6       30.11F
VALENTINE      CLOUDY    48  38  68 W8        30.14S
THEDFORD       CLOUDY    46  41  83 NW3       30.17F
AINSWORTH      CLEAR     47  41  77 W7        30.14S
O`NEILL        CLEAR     49  41  75 CALM      30.11S
ORD            CLEAR     44  39  82 CALM      30.10F
BROKEN BOW     CLEAR     46  41  82 CALM      30.14S
VALENTINE NWR    N/A     49  40  70 NW3         N/A
BUTTE            N/A     49  41  74 W3          N/A
HALSEY           N/A     52  38  60 W5          N/A
EWING            N/A     50  44  79 CALM        N/A
$$

...OBSERVATIONS IN SOUTHWEST NEBRASKA AND FAR NORTHEAST COLORADO...

CITY           SKY/WX    TMP DP  RH WIND       PRES   REMARKS
WRAY           FAIR      50  37  62 W7        30.23F
HOLYOKE        FAIR      48  39  71 W8        30.23S
IMPERIAL       CLEAR     52  40  63 NW5       30.20F
OGALLALA       CLEAR     45  41  88 W6        30.21S
NORTH PLATTE   CLEAR     42  39  89 CALM      30.17F
MCCOOK         CLEAR     49  42  77 W9        30.16S
LEXINGTON      CLEAR     46  41  84 NW3       30.15S
STAPLETON        N/A     51  41  68 CALM        N/A
GOTHENBURG       N/A     50  40  69 NW3         N/A
CALLAWAY         N/A     42  41  95 NW3         N/A
$$

...OBSERVATIONS IN CENTRAL LINCOLN COUNTY AREA...

CITY           SKY/WX    TMP DP  RH WIND       PRES   REMARKS
N.P. AIRPORT   CLEAR     42  39  89 CALM      30.17F
N.P. DOWNTOWN    N/A     49  44  82 CALM        N/A
N.P. SOUTHEAST   N/A     50  43  78 CALM        N/A
N.P. HILLCREST   N/A     52  41  67 CALM        N/A
$$

...SOME OBSERVATIONS FROM AROUND THE REGION...

CITY           SKY/WX    TMP DP  RH WIND       PRES   REMARKS
DENVER         CLEAR     51  29  42 S13       30.30F
LARAMIE        CLOUDY    42  37  82 S8        30.38F
CHEYENNE       CLOUDY    46  37  71 W8        30.34F
SCOTTSBLUFF    CLEAR     48  42  80 N7        30.23F
RAPID CITY     CLEAR     44  39  82 CALM      30.16F
BISMARCK       CLEAR     38  36  92 CALM      30.06S
PIERRE         CLEAR     50  39  66 W8        30.07F
SIOUX FALLS    CLEAR     48  36  63 W9        30.03S
OMAHA          CLEAR     54  48  80 SE3       30.05S
GRAND ISLAND   CLEAR     50  43  77 W5        30.11S
KANSAS CITY    CLEAR     55  45  68 SW7       30.09S
WICHITA        CLEAR     54  47  77 SW5       30.15F
OKLAHOMA CITY  MOCLDY    55  50  83 CALM      30.17F
DALLAS         CLOUDY    68  60  75 N6        30.12S
AMARILLO       CLOUDY    50  38  63 SW9       30.29S
DODGE CITY     CLEAR     55  38  52 SW9       30.18F
HAYS           CLEAR     54  37  54 W6        30.14S
GOODLAND       CLEAR     51  40  65 SW9       30.21F
$$




USA.gov is the U.S. government's official web portal to all federal, state and local government web resources and services.